Time,TemperatureF,DewpointF,PressureIn,WindDirection,WindDirectionDegrees,WindSpeedMPH,WindSpeedGustMPH,Humidity,HourlyPrecipIn,Conditions,Clouds,dailyrainin,SoftwareType,DateUTC
2013-03-11 00:02:00,63.7,60.7,29.90,ESE,115,0.0,8.0,90,0.00,,OVC065,0.00,VWS V13.01,2013-03-11 05:02:00,
2013-03-11 00:07:00,63.6,60.6,29.89,SE,142,6.0,12.0,90,0.00,,OVC065,0.00,VWS V13.01,2013-03-11 05:07:00,
2013-03-11 00:12:00,63.6,60.6,29.88,SSE,168,10.0,12.0,90,0.00,,OVC065,0.00,VWS V13.01,2013-03-11 05:12:00,
2013-03-11 00:17:00,63.5,60.5,29.88,ESE,113,7.0,11.0,90,0.00,,OVC065,0.00,VWS V13.01,2013-03-11 05:17:00,
2013-03-11 00:22:00,63.5,60.5,29.89,ESE,103,2.0,15.0,90,0.00,,OVC065,0.00,VWS V13.01,2013-03-11 05:22:00,
2013-03-11 00:28:00,63.5,60.5,29.89,ESE,113,0.0,15.0,90,0.00,,OVC065,0.00,VWS V13.01,2013-03-11 05:28:00,
2013-03-11 00:33:00,63.5,60.8,29.89,SE,144,0.0,7.0,91,0.00,,OVC065,0.00,VWS V13.01,2013-03-11 05:33:00,
2013-03-11 00:38:00,63.5,60.8,29.89,East,101,5.0,12.0,91,0.00,,OVC065,0.00,VWS V13.01,2013-03-11 05:38:00,
2013-03-11 00:43:00,63.5,60.8,29.90,SE,145,0.0,12.0,91,0.00,,OVC065,0.00,VWS V13.01,2013-03-11 05:43:00,
2013-03-11 00:48:00,63.6,60.9,29.89,SE,132,4.0,9.0,91,0.00,,OVC065,0.00,VWS V13.01,2013-03-11 05:48:00,
2013-03-11 00:53:00,63.6,60.9,29.89,SE,128,1.0,15.0,91,0.00,,OVC065,0.00,VWS V13.01,2013-03-11 05:53:00,
2013-03-11 00:58:00,63.6,60.9,29.89,South,180,0.0,15.0,91,0.00,,OVC065,0.00,VWS V13.01,2013-03-11 05:58:00,
2013-03-11 01:03:00,63.7,61.0,29.90,SE,140,6.0,11.0,91,0.00,,OVC025,0.00,VWS V13.01,2013-03-11 06:03:00,
2013-03-11 01:08:00,63.7,61.0,29.90,SE,130,0.0,11.0,91,0.00,,OVC025,0.00,VWS V13.01,2013-03-11 06:08:00,
2013-03-11 01:13:00,63.8,61.1,29.90,SE,137,6.0,11.0,91,0.00,,OVC025,0.00,VWS V13.01,2013-03-11 06:13:00,
2013-03-11 01:18:00,63.8,60.8,29.90,SSE,148,0.0,9.0,90,0.00,,OVC025,0.00,VWS V13.01,2013-03-11 06:18:00,
2013-03-11 01:23:00,63.9,60.9,29.90,SE,126,0.0,11.0,90,0.00,,OVC025,0.00,VWS V13.01,2013-03-11 06:23:00,
2013-03-11 01:28:00,63.9,60.9,29.90,SSW,200,4.0,11.0,90,0.00,,OVC025,0.00,VWS V13.01,2013-03-11 06:28:00,
2013-03-11 01:34:00,63.9,61.2,29.90,SE,138,2.0,4.0,91,0.00,,OVC045,0.00,VWS V13.01,2013-03-11 06:34:00,
2013-03-11 01:39:00,64.0,61.3,29.90,ESE,111,0.0,9.0,91,0.00,,OVC045,0.00,VWS V13.01,2013-03-11 06:39:00,
2013-03-11 01:44:00,64.1,61.4,29.90,SE,132,0.0,10.0,91,0.00,,OVC045,0.00,VWS V13.01,2013-03-11 06:44:00,
2013-03-11 01:49:00,64.2,61.5,29.90,SE,133,0.0,6.0,91,0.00,,OVC045,0.00,VWS V13.01,2013-03-11 06:49:00,
2013-03-11 01:54:00,64.3,61.6,29.90,SE,130,0.0,7.0,91,0.00,,OVC045,0.00,VWS V13.01,2013-03-11 06:54:00,
2013-03-11 01:59:00,64.4,61.7,29.90,SE,144,0.0,9.0,91,0.00,,OVC045,0.00,VWS V13.01,2013-03-11 06:59:00,
2013-03-11 02:04:00,64.5,61.8,29.90,SSW,192,0.0,6.0,91,0.00,,OVC025,0.00,VWS V13.01,2013-03-11 07:04:00,
2013-03-11 02:09:00,64.7,62.0,29.90,SE,142,1.0,9.0,91,0.00,,OVC025,0.00,VWS V13.01,2013-03-11 07:09:00,
2013-03-11 02:14:00,64.8,62.1,29.90,SSE,162,0.0,9.0,91,0.00,,OVC025,0.00,VWS V13.01,2013-03-11 07:14:00,
2013-03-11 02:19:00,64.9,62.2,29.89,SSW,196,0.0,3.0,91,0.00,,OVC025,0.00,VWS V13.01,2013-03-11 07:19:00,
2013-03-11 02:24:00,65.0,62.3,29.89,ESE,109,5.0,6.0,91,0.00,,OVC025,0.00,VWS V13.01,2013-03-11 07:24:00,
2013-03-11 02:29:00,65.0,62.3,29.89,SSE,161,0.0,7.0,91,0.00,,OVC025,0.00,VWS V13.01,2013-03-11 07:29:00,
2013-03-11 02:34:00,65.1,62.4,29.88,SE,144,5.0,10.0,91,0.00,,OVC025,0.00,VWS V13.01,2013-03-11 07:34:00,
2013-03-11 02:39:00,65.1,62.4,29.88,SE,136,6.0,10.0,91,0.00,,OVC025,0.00,VWS V13.01,2013-03-11 07:39:00,
2013-03-11 02:45:00,65.2,62.5,29.88,SSW,213,5.0,10.0,91,0.00,,OVC025,0.00,VWS V13.01,2013-03-11 07:45:00,
2013-03-11 02:50:00,65.1,62.4,29.88,SSE,152,0.0,6.0,91,0.00,,OVC025,0.00,VWS V13.01,2013-03-11 07:50:00,
2013-03-11 02:55:00,65.2,62.5,29.88,ESE,119,0.0,6.0,91,0.00,,OVC025,0.00,VWS V13.01,2013-03-11 07:55:00,
2013-03-11 03:00:00,65.2,62.5,29.87,SE,142,0.0,7.0,91,0.00,,OVC025,0.00,VWS V13.01,2013-03-11 08:00:00,
2013-03-11 03:05:00,65.2,62.5,29.87,SE,137,0.0,7.0,91,0.00,,OVC049,0.00,VWS V13.01,2013-03-11 08:05:00,
2013-03-11 03:10:00,65.2,62.5,29.87,SE,126,0.0,7.0,91,0.00,,OVC049,0.00,VWS V13.01,2013-03-11 08:10:00,
2013-03-11 03:15:00,65.1,62.7,29.87,SSE,159,3.0,9.0,92,0.00,,OVC049,0.00,VWS V13.01,2013-03-11 08:15:00,
2013-03-11 03:20:00,65.1,62.7,29.86,ESE,118,0.0,6.0,92,0.00,,OVC049,0.00,VWS V13.01,2013-03-11 08:20:00,
2013-03-11 03:25:00,65.0,62.6,29.86,SE,128,0.0,10.0,92,0.00,,OVC049,0.00,VWS V13.01,2013-03-11 08:25:00,
2013-03-11 03:30:00,65.0,62.6,29.86,SE,132,3.0,10.0,92,0.00,,OVC049,0.00,VWS V13.01,2013-03-11 08:30:00,
2013-03-11 03:35:00,65.0,62.6,29.86,SE,126,0.0,5.0,92,0.00,,OVC044,0.00,VWS V13.01,2013-03-11 08:35:00,
2013-03-11 03:40:00,65.0,62.6,29.85,SE,136,0.0,10.0,92,0.00,,OVC044,0.00,VWS V13.01,2013-03-11 08:40:00,
2013-03-11 03:46:00,65.1,62.7,29.85,SE,138,5.0,10.0,92,0.00,,OVC044,0.00,VWS V13.01,2013-03-11 08:46:00,
2013-03-11 03:51:00,65.1,63.0,29.85,SSE,148,0.0,9.0,93,0.00,,OVC044,0.00,VWS V13.01,2013-03-11 08:51:00,
2013-03-11 03:56:00,65.1,63.0,29.85,SE,137,0.0,9.0,93,0.00,,OVC044,0.00,VWS V13.01,2013-03-11 08:56:00,
2013-03-11 04:01:00,65.1,63.0,29.85,SE,129,2.0,9.0,93,0.00,,OVC044,0.00,VWS V13.01,2013-03-11 09:01:00,
2013-03-11 04:06:00,65.1,63.0,29.85,SE,138,1.0,5.0,93,0.00,,OVC023,0.00,VWS V13.01,2013-03-11 09:06:00,
2013-03-11 04:11:00,65.1,63.0,29.84,SE,137,0.0,5.0,93,0.00,,OVC023,0.00,VWS V13.01,2013-03-11 09:11:00,
2013-03-11 04:17:00,65.2,63.1,29.83,SE,140,6.0,7.0,93,0.00,,OVC023,0.00,VWS V13.01,2013-03-11 09:17:00,
2013-03-11 04:22:00,65.2,63.1,29.83,SE,140,2.0,11.0,93,0.00,,OVC023,0.00,VWS V13.01,2013-03-11 09:22:00,
2013-03-11 04:27:00,65.2,63.1,29.83,SE,134,2.0,11.0,93,0.00,,OVC023,0.00,VWS V13.01,2013-03-11 09:27:00,
2013-03-11 04:32:00,65.2,63.1,29.83,SE,130,0.0,3.0,93,0.00,,OVC023,0.00,VWS V13.01,2013-03-11 09:32:00,
2013-03-11 04:37:00,65.2,63.1,29.83,SE,142,2.0,5.0,93,0.00,,OVC023,0.00,VWS V13.01,2013-03-11 09:37:00,
2013-03-11 04:42:00,65.2,63.1,29.83,SE,141,0.0,5.0,93,0.00,,OVC023,0.00,VWS V13.01,2013-03-11 09:42:00,
2013-03-11 04:47:00,65.2,63.1,29.83,SE,137,2.0,2.0,93,0.00,,OVC023,0.00,VWS V13.01,2013-03-11 09:47:00,
2013-03-11 04:52:00,65.4,63.6,29.83,SSE,149,0.0,6.0,94,0.00,,OVC023,0.00,VWS V13.01,2013-03-11 09:52:00,
2013-03-11 04:57:00,65.5,63.7,29.83,SE,138,2.0,7.0,94,0.00,,OVC023,0.00,VWS V13.01,2013-03-11 09:57:00,
2013-03-11 05:02:00,65.5,63.7,29.83,SE,130,4.0,5.0,94,0.00,,OVC019,0.00,VWS V13.01,2013-03-11 10:02:00,
2013-03-11 05:07:00,65.6,63.8,29.83,SE,138,0.0,7.0,94,0.00,,OVC019,0.00,VWS V13.01,2013-03-11 10:07:00,
2013-03-11 05:12:00,65.7,63.9,29.83,SE,144,0.0,7.0,94,0.00,,OVC019,0.00,VWS V13.01,2013-03-11 10:12:00,
2013-03-11 05:17:00,65.9,64.1,29.83,SW,215,2.0,3.0,94,0.00,,OVC019,0.00,VWS V13.01,2013-03-11 10:17:00,
2013-03-11 05:23:00,66.1,64.3,29.83,SE,140,0.0,10.0,94,0.00,,OVC019,0.00,VWS V13.01,2013-03-11 10:23:00,
2013-03-11 05:28:00,66.2,64.4,29.83,SSW,196,0.0,10.0,94,0.00,,OVC019,0.00,VWS V13.01,2013-03-11 10:28:00,
2013-03-11 05:33:00,66.3,64.5,29.83,South,178,0.0,3.0,94,0.00,,OVC019,0.00,VWS V13.01,2013-03-11 10:33:00,
2013-03-11 05:38:00,66.4,64.6,29.83,SE,134,2.0,7.0,94,0.00,,OVC019,0.00,VWS V13.01,2013-03-11 10:38:00,
2013-03-11 05:43:00,66.5,64.7,29.83,SSW,192,8.0,9.0,94,0.00,,OVC019,0.00,VWS V13.01,2013-03-11 10:43:00,
2013-03-11 05:48:00,66.6,64.8,29.83,South,178,0.0,2.0,94,0.00,,OVC019,0.00,VWS V13.01,2013-03-11 10:48:00,
2013-03-11 05:53:00,66.7,64.9,29.83,SSW,200,0.0,6.0,94,0.00,,OVC019,0.00,VWS V13.01,2013-03-11 10:53:00,
2013-03-11 05:58:00,66.7,64.9,29.83,South,169,0.0,6.0,94,0.00,,OVC019,0.00,VWS V13.01,2013-03-11 10:58:00,
2013-03-11 06:03:00,66.7,64.9,29.83,SE,135,0.0,4.0,94,0.00,,OVC016,0.00,VWS V13.01,2013-03-11 11:03:00,
2013-03-11 06:08:00,66.6,64.8,29.83,SSE,148,0.0,6.0,94,0.00,,OVC016,0.00,VWS V13.01,2013-03-11 11:08:00,
2013-03-11 06:13:00,66.5,64.4,29.83,South,173,3.0,6.0,93,0.00,,OVC016,0.00,VWS V13.01,2013-03-11 11:13:00,
2013-03-11 06:18:00,66.4,64.3,29.83,SSE,148,0.0,5.0,93,0.00,,OVC016,0.00,VWS V13.01,2013-03-11 11:18:00,
2013-03-11 06:23:00,66.3,64.5,29.83,SE,144,3.0,9.0,94,0.00,,OVC016,0.00,VWS V13.01,2013-03-11 11:23:00,
2013-03-11 06:29:00,66.3,64.5,29.83,SE,126,1.0,9.0,94,0.00,,OVC016,0.00,VWS V13.01,2013-03-11 11:29:00,
2013-03-11 06:34:00,66.3,64.5,29.83,SE,136,0.0,5.0,94,0.00,,OVC013,0.00,VWS V13.01,2013-03-11 11:34:00,
2013-03-11 06:39:00,66.3,64.5,29.84,SSW,202,2.0,6.0,94,0.00,,OVC013,0.00,VWS V13.01,2013-03-11 11:39:00,
2013-03-11 06:44:00,66.3,64.5,29.84,SSW,199,3.0,6.0,94,0.00,,OVC013,0.00,VWS V13.01,2013-03-11 11:44:00,
2013-03-11 06:49:00,66.3,64.5,29.84,SSE,163,2.0,5.0,94,0.00,,OVC013,0.00,VWS V13.01,2013-03-11 11:49:00,
2013-03-11 06:54:00,66.3,64.5,29.83,SSE,168,0.0,7.0,94,0.00,,OVC013,0.00,VWS V13.01,2013-03-11 11:54:00,
2013-03-11 06:59:00,66.4,64.6,29.83,SE,141,2.0,9.0,94,0.00,,OVC013,0.00,VWS V13.01,2013-03-11 11:59:00,
2013-03-11 07:04:00,66.4,64.3,29.83,South,186,5.0,7.0,93,0.00,,BKN016,0.00,VWS V13.01,2013-03-11 12:04:00,
2013-03-11 07:09:00,66.5,64.4,29.83,SE,131,4.0,10.0,93,0.00,,BKN016,0.00,VWS V13.01,2013-03-11 12:09:00,
2013-03-11 07:14:00,66.5,64.4,29.84,SSE,152,2.0,10.0,93,0.00,,BKN016,0.00,VWS V13.01,2013-03-11 12:14:00,
2013-03-11 07:19:00,66.4,64.3,29.84,SSW,194,0.0,5.0,93,0.00,,BKN016,0.00,VWS V13.01,2013-03-11 12:19:00,
2013-03-11 07:24:00,66.4,64.3,29.84,South,184,0.0,5.0,93,0.00,,BKN016,0.00,VWS V13.01,2013-03-11 12:24:00,
2013-03-11 07:29:00,66.4,64.3,29.84,SSW,213,0.0,5.0,93,0.00,,BKN016,0.00,VWS V13.01,2013-03-11 12:29:00,
2013-03-11 07:34:00,66.4,64.3,29.83,SSW,203,0.0,1.0,93,0.00,,BKN200,0.00,VWS V13.01,2013-03-11 12:34:00,
2013-03-11 07:39:00,66.4,64.3,29.83,ESE,117,5.0,5.0,93,0.00,,BKN200,0.00,VWS V13.01,2013-03-11 12:39:00,
2013-03-11 07:44:00,66.5,64.1,29.83,SSE,153,0.0,6.0,92,0.00,,BKN200,0.00,VWS V13.01,2013-03-11 12:44:00,
2013-03-11 07:50:00,66.5,64.1,29.83,SSW,198,4.0,5.0,92,0.00,,BKN200,0.00,VWS V13.01,2013-03-11 12:50:00,
2013-03-11 07:55:00,66.7,64.3,29.83,SSW,198,0.0,10.0,92,0.00,,BKN200,0.00,VWS V13.01,2013-03-11 12:55:00,
2013-03-11 08:00:00,66.9,64.5,29.83,SSE,153,3.0,10.0,92,0.00,,BKN200,0.00,VWS V13.01,2013-03-11 13:00:00,
2013-03-11 08:05:00,67.0,64.6,29.83,South,179,0.0,4.0,92,0.00,,BKN080,0.00,VWS V13.01,2013-03-11 13:05:00,
2013-03-11 08:10:00,67.2,64.8,29.83,SSE,150,0.0,5.0,92,0.00,,BKN080,0.00,VWS V13.01,2013-03-11 13:10:00,
2013-03-11 08:15:00,67.3,64.9,29.83,South,175,3.0,6.0,92,0.00,,BKN080,0.00,VWS V13.01,2013-03-11 13:15:00,
2013-03-11 08:20:00,67.4,65.0,29.83,SE,146,0.0,6.0,92,0.00,,BKN080,0.00,VWS V13.01,2013-03-11 13:20:00,
2013-03-11 08:25:00,67.5,64.8,29.82,SE,140,4.0,6.0,91,0.00,,BKN080,0.00,VWS V13.01,2013-03-11 13:25:00,
2013-03-11 08:30:00,67.7,65.0,29.82,SSE,161,3.0,6.0,91,0.00,,BKN080,0.00,VWS V13.01,2013-03-11 13:30:00,
2013-03-11 08:35:00,67.9,65.2,29.82,South,185,2.0,2.0,91,0.00,,BKN080,0.00,VWS V13.01,2013-03-11 13:35:00,
2013-03-11 08:41:00,68.1,65.1,29.82,SE,136,0.0,7.0,90,0.00,,BKN080,0.00,VWS V13.01,2013-03-11 13:41:00,
2013-03-11 08:46:00,68.3,65.3,29.84,WSW,248,0.0,7.0,90,0.00,,BKN080,0.00,VWS V13.01,2013-03-11 13:46:00,
2013-03-11 08:51:00,67.0,61.7,29.86,WNW,287,5.0,9.0,83,0.04,,BKN080,0.05,VWS V13.01,2013-03-11 13:51:00,
2013-03-11 08:56:00,62.9,57.3,29.86,NW,304,5.0,17.0,82,0.12,,BKN080,0.13,VWS V13.01,2013-03-11 13:56:00,
2013-03-11 09:01:00,59.0,54.8,29.87,WNW,287,3.0,19.0,86,0.31,, +RA,0.33,VWS V13.01,2013-03-11 14:01:00,
2013-03-11 09:06:00,56.7,53.8,29.87,WNW,302,4.0,14.0,90,0.34,, +RA,0.34,VWS V13.01,2013-03-11 14:06:00,
2013-03-11 09:33:00,54.3,52.6,29.88,NW,314,6.0,11.0,94,0.35,, +RA,0.35,VWS V13.01,2013-03-11 14:33:00,
2013-03-11 09:38:00,53.8,51.8,29.89,NW,310,4.0,14.0,93,0.36,, +RA,0.36,VWS V13.01,2013-03-11 14:38:00,
2013-03-11 09:43:00,53.0,51.0,29.90,NNW,330,1.0,14.0,93,0.36,, +RA,0.36,VWS V13.01,2013-03-11 14:43:00,
2013-03-11 09:49:00,52.4,50.4,29.90,NW,314,10.0,14.0,93,0.36,, +RA,0.36,VWS V13.01,2013-03-11 14:49:00,
2013-03-11 16:43:00,55.8,48.7,29.84,NW,319,0.0,10.0,77,0.00,, +RA,0.36,VWS V13.01,2013-03-11 21:43:00,
2013-03-11 16:48:00,55.9,48.5,29.84,NW,319,0.0,5.0,76,0.00,, +RA,0.36,VWS V13.01,2013-03-11 21:48:00,
2013-03-11 16:54:00,55.9,48.5,29.84,NW,317,0.0,10.0,76,0.00,, +RA,0.36,VWS V13.01,2013-03-11 21:54:00,
2013-03-11 16:59:00,55.7,47.9,29.84,NNW,348,5.0,10.0,75,0.00,, +RA,0.36,VWS V13.01,2013-03-11 21:59:00,
2013-03-11 17:04:00,55.3,47.9,29.85,NNW,331,0.0,6.0,76,0.00,,OVC018,0.36,VWS V13.01,2013-03-11 22:04:00,
2013-03-11 17:09:00,55.1,48.0,29.84,NNW,341,2.0,9.0,77,0.00,,OVC018,0.36,VWS V13.01,2013-03-11 22:09:00,
2013-03-11 17:14:00,55.2,47.8,29.84,NNW,338,0.0,9.0,76,0.00,,OVC018,0.36,VWS V13.01,2013-03-11 22:14:00,
2013-03-11 17:19:00,55.1,47.7,29.85,NNW,338,0.0,4.0,76,0.00,,OVC018,0.36,VWS V13.01,2013-03-11 22:19:00,
2013-03-11 17:24:00,55.0,47.6,29.85,NW,318,3.0,7.0,76,0.00,,OVC018,0.36,VWS V13.01,2013-03-11 22:24:00,
2013-03-11 17:29:00,54.9,47.5,29.85,NW,309,3.0,7.0,76,0.00,,OVC018,0.36,VWS V13.01,2013-03-11 22:29:00,
2013-03-11 17:34:00,54.5,47.1,29.86,WNW,296,4.0,9.0,76,0.00,,OVC018,0.36,VWS V13.01,2013-03-11 22:34:00,
2013-03-11 17:40:00,54.3,47.6,29.86,WNW,298,5.0,9.0,78,0.00,,OVC018,0.36,VWS V13.01,2013-03-11 22:40:00,
2013-03-11 17:45:00,54.5,47.8,29.86,NW,304,0.0,9.0,78,0.00,,OVC018,0.36,VWS V13.01,2013-03-11 22:45:00,
2013-03-11 17:50:00,54.5,47.5,29.86,NW,322,7.0,7.0,77,0.00,,OVC018,0.36,VWS V13.01,2013-03-11 22:50:00,
2013-03-11 17:55:00,54.2,47.2,29.87,NW,321,1.0,10.0,77,0.00,,OVC018,0.36,VWS V13.01,2013-03-11 22:55:00,
2013-03-11 18:00:00,54.0,47.3,29.86,NW,321,0.0,10.0,78,0.00,,OVC018,0.36,VWS V13.01,2013-03-11 23:00:00,
2013-03-11 18:05:00,53.9,47.2,29.87,NW,323,0.0,5.0,78,0.00,,OVC110,0.36,VWS V13.01,2013-03-11 23:05:00,
2013-03-11 18:10:00,53.9,47.5,29.87,NW,324,0.0,5.0,79,0.00,,OVC110,0.36,VWS V13.01,2013-03-11 23:10:00,
2013-03-11 18:15:00,53.9,47.2,29.88,NNW,327,4.0,7.0,78,0.00,,OVC110,0.36,VWS V13.01,2013-03-11 23:15:00,
2013-03-11 18:21:00,53.7,47.0,29.87,NNW,338,0.0,7.0,78,0.00,,OVC110,0.36,VWS V13.01,2013-03-11 23:21:00,
2013-03-11 18:26:00,53.4,46.4,29.87,NNW,327,8.0,10.0,77,0.00,,OVC110,0.36,VWS V13.01,2013-03-11 23:26:00,
2013-03-11 18:31:00,53.1,46.4,29.87,North,355,0.0,12.0,78,0.00,,OVC110,0.36,VWS V13.01,2013-03-11 23:31:00,
2013-03-11 18:36:00,52.8,45.8,29.88,NNW,345,6.0,9.0,77,0.00,,OVC110,0.36,VWS V13.01,2013-03-11 23:36:00,
2013-03-11 18:41:00,52.5,45.8,29.87,NNW,330,3.0,9.0,78,0.00,,OVC110,0.36,VWS V13.01,2013-03-11 23:41:00,
2013-03-11 18:46:00,52.2,45.6,29.87,NNW,340,0.0,9.0,78,0.00,,OVC110,0.36,VWS V13.01,2013-03-11 23:46:00,
2013-03-11 18:51:00,52.0,45.4,29.87,NNW,341,5.0,5.0,78,0.00,,OVC110,0.36,VWS V13.01,2013-03-11 23:51:00,
2013-03-11 19:05:00,51.4,45.5,29.88,NNW,339,0.0,4.0,80,0.00,,OVC110,0.36,VWS V13.01,2013-03-12 00:05:00,
2013-03-11 19:24:00,50.7,45.1,29.89,NNW,338,0.0,6.0,81,0.00,,OVC110,0.36,VWS V13.01,2013-03-12 00:24:00,
2013-03-11 19:29:00,50.5,44.9,29.89,NNW,338,0.0,6.0,81,0.00,,OVC110,0.36,VWS V13.01,2013-03-12 00:29:00,
2013-03-11 19:52:00,49.6,44.7,29.90,NNW,337,0.0,0.0,83,0.00,,SCT200,0.36,VWS V13.01,2013-03-12 00:52:00,
2013-03-11 19:57:00,49.4,44.5,29.90,NNW,337,0.0,0.0,83,0.00,,SCT200,0.36,VWS V13.01,2013-03-12 00:57:00,
2013-03-11 20:02:00,49.2,44.6,29.91,NNW,338,0.0,0.0,84,0.00,,SCT200,0.36,VWS V13.01,2013-03-12 01:02:00,
2013-03-11 20:07:00,49.0,44.4,29.91,NNW,338,0.0,0.0,84,0.00,,SCT200,0.36,VWS V13.01,2013-03-12 01:07:00,
2013-03-11 20:12:00,48.8,44.2,29.91,NNW,338,0.0,0.0,84,0.00,,SCT200,0.36,VWS V13.01,2013-03-12 01:12:00,
2013-03-11 20:30:00,48.1,43.8,29.92,NNW,338,0.0,0.0,85,0.00,,SCT200,0.36,VWS V13.01,2013-03-12 01:30:00,
2013-03-11 20:55:00,46.9,43.2,29.92,NNW,337,0.0,0.0,87,0.00,,SCT200,0.36,VWS V13.01,2013-03-12 01:55:00,
2013-03-11 21:01:00,46.7,43.0,29.92,NNW,338,0.0,0.0,87,0.00,,SCT200,0.36,VWS V13.01,2013-03-12 02:01:00,
2013-03-11 21:06:00,46.4,42.8,29.92,NNW,338,0.0,0.0,87,0.00,,FEW200,0.36,VWS V13.01,2013-03-12 02:06:00,
2013-03-11 21:30:00,45.3,42.3,29.94,NNW,337,0.0,0.0,89,0.00,,FEW200,0.36,VWS V13.01,2013-03-12 02:30:00,
2013-03-11 21:35:00,45.1,42.3,29.94,NNW,338,0.0,0.0,90,0.00,,FEW200,0.36,VWS V13.01,2013-03-12 02:35:00,
2013-03-11 21:40:00,45.0,42.5,29.94,NNW,337,0.0,0.0,91,0.00,,FEW200,0.36,VWS V13.01,2013-03-12 02:40:00,
2013-03-11 21:45:00,45.0,42.5,29.94,NNW,337,0.0,0.0,91,0.00,,FEW200,0.36,VWS V13.01,2013-03-12 02:45:00,
2013-03-11 21:50:00,45.1,42.6,29.94,NNW,337,0.0,0.0,91,0.00,,FEW200,0.36,VWS V13.01,2013-03-12 02:50:00,
2013-03-11 21:55:00,45.0,42.5,29.94,NNW,338,0.0,0.0,91,0.00,,FEW200,0.36,VWS V13.01,2013-03-12 02:55:00,
2013-03-11 22:00:00,45.0,42.8,29.94,NNW,338,0.0,0.0,92,0.00,,FEW200,0.36,VWS V13.01,2013-03-12 03:00:00,
2013-03-11 22:05:00,45.0,42.8,29.94,NNW,338,0.0,0.0,92,0.00,,SCT200,0.36,VWS V13.01,2013-03-12 03:05:00,
2013-03-11 22:10:00,44.9,42.4,29.94,NNW,337,0.0,0.0,91,0.00,,SCT200,0.36,VWS V13.01,2013-03-12 03:10:00,
2013-03-11 22:15:00,44.7,42.2,29.94,NNW,337,0.0,0.0,91,0.00,,SCT200,0.36,VWS V13.01,2013-03-12 03:15:00,
2013-03-11 22:20:00,44.6,42.4,29.95,NNW,337,0.0,0.0,92,0.00,,SCT200,0.36,VWS V13.01,2013-03-12 03:20:00,
2013-03-11 22:25:00,44.5,42.3,29.95,NNW,338,0.0,0.0,92,0.00,,SCT200,0.36,VWS V13.01,2013-03-12 03:25:00,
2013-03-11 22:30:00,44.3,42.1,29.95,NNW,338,0.0,0.0,92,0.00,,SCT200,0.36,VWS V13.01,2013-03-12 03:30:00,
2013-03-11 22:36:00,44.3,42.4,29.95,NNW,338,0.0,0.0,93,0.00,,SCT200,0.36,VWS V13.01,2013-03-12 03:36:00,
2013-03-11 22:41:00,44.3,42.4,29.95,NNW,338,0.0,0.0,93,0.00,,SCT200,0.36,VWS V13.01,2013-03-12 03:41:00,
2013-03-11 22:46:00,44.2,42.3,29.95,NNW,338,0.0,0.0,93,0.00,,SCT200,0.36,VWS V13.01,2013-03-12 03:46:00,
2013-03-11 22:51:00,44.1,42.2,29.95,NNW,338,0.0,0.0,93,0.00,,SCT200,0.36,VWS V13.01,2013-03-12 03:51:00,
2013-03-11 22:56:00,44.0,42.1,29.96,NNW,337,0.0,0.0,93,0.00,,SCT200,0.36,VWS V13.01,2013-03-12 03:56:00,
2013-03-11 23:00:00,43.9,42.0,29.96,NNW,337,0.0,0.0,93,0.00,,SCT200,0.36,VWS V13.01,2013-03-12 04:00:00,
2013-03-11 23:01:00,43.9,42.0,29.96,NNW,337,0.0,0.0,93,0.00,,SCT200,0.36,VWS V13.01,2013-03-12 04:01:00,
2013-03-11 23:06:00,43.8,41.9,29.96,NNW,337,0.0,0.0,93,0.00,,FEW200,0.36,VWS V13.01,2013-03-12 04:06:00,
2013-03-11 23:12:00,43.7,41.8,29.96,NNW,338,0.0,0.0,93,0.00,,FEW200,0.36,VWS V13.01,2013-03-12 04:12:00,
2013-03-11 23:17:00,43.6,41.7,29.96,NNW,337,0.0,0.0,93,0.00,,FEW200,0.36,VWS V13.01,2013-03-12 04:17:00,
2013-03-11 23:22:00,43.5,41.6,29.96,NNW,338,0.0,0.0,93,0.00,,FEW200,0.36,VWS V13.01,2013-03-12 04:22:00,
2013-03-11 23:27:00,43.3,41.4,29.96,NNW,337,0.0,0.0,93,0.00,,FEW200,0.36,VWS V13.01,2013-03-12 04:27:00,
2013-03-11 23:32:00,43.2,41.3,29.96,NNW,338,0.0,0.0,93,0.00,,FEW200,0.36,VWS V13.01,2013-03-12 04:32:00,
2013-03-11 23:37:00,43.1,41.2,29.96,NNW,338,0.0,0.0,93,0.00,,FEW200,0.36,VWS V13.01,2013-03-12 04:37:00,
2013-03-11 23:42:00,43.1,41.2,29.96,NNW,337,0.0,0.0,93,0.00,,FEW200,0.36,VWS V13.01,2013-03-12 04:42:00,
2013-03-11 23:47:00,43.2,41.6,29.96,NNW,337,0.0,0.0,94,0.00,,FEW200,0.36,VWS V13.01,2013-03-12 04:47:00,
2013-03-11 23:52:00,43.2,41.6,29.96,NNW,338,0.0,0.0,94,0.00,,FEW200,0.36,VWS V13.01,2013-03-12 04:52:00,
2013-03-11 23:57:00,43.4,41.8,29.96,NNW,338,0.0,1.0,94,0.00,,FEW200,0.36,VWS V13.01,2013-03-12 04:57:00,